Location: Newark
(48.9886°N, 1.2358°E)
Time: 01:39:11
(UTC+00:00)

Tiros 1 - Visible Passes

Search period start: 13 November 2019 00:00
Search period end: 23 November 2019 00:00
Orbit: 630 x 664 km, 48.4° (Epoch: 12 November)

Date Brightness Start Highest point End Pass type
(mag) Time Alt. Az. Time Alt. Az. Time Alt. Az.
13 Nov 7.2 17:48:48 10° WSW 17:53:25 69° SSE 17:55:45 29° E visible
13 Nov 8.8 19:30:54 10° W 19:33:25 32° W 19:33:25 32° W visible
14 Nov 7.0 18:14:49 10° W 18:19:28 83° S 18:20:39 51° E visible
14 Nov 9.6 19:56:59 10° W 19:58:18 19° W 19:58:18 19° W visible
15 Nov 7.3 16:58:48 10° WSW 17:03:24 67° SSE 17:07:53 11° E visible
15 Nov 7.0 18:40:53 10° W 18:45:32 84° S 18:45:32 84° S visible
15 Nov 10.3 20:23:05 10° W 20:23:12 11° W 20:23:12 11° W visible
16 Nov 7.1 17:24:48 10° W 17:29:27 82° S 17:32:48 19° E visible
16 Nov 7.9 19:06:58 10° W 19:10:27 49° W 19:10:27 49° W visible
17 Nov 7.1 17:50:52 10° W 17:55:32 84° S 17:57:44 31° E visible
17 Nov 9.0 19:33:04 10° W 19:35:24 27° W 19:35:24 27° W visible
18 Nov 7.2 18:16:56 10° W 18:21:35 73° SSW 18:22:43 50° SE visible
18 Nov 9.8 19:59:17 10° W 20:00:23 16° W 20:00:23 16° W visible
19 Nov 7.2 17:00:51 10° W 17:05:30 85° S 17:10:05 11° E visible
19 Nov 7.6 18:43:03 10° W 18:47:34 52° SSW 18:47:45 52° SSW visible
20 Nov 7.2 17:26:56 10° W 17:31:34 74° S 17:35:12 17° ESE visible
20 Nov 8.6 19:09:15 10° W 19:12:52 32° SW 19:12:52 32° SW visible
21 Nov 7.7 17:53:01 10° W 17:57:33 55° SSW 18:00:25 22° SE visible
21 Nov 9.5 19:35:51 10° W 19:38:06 18° SW 19:38:06 18° SW visible
22 Nov 7.3 16:36:55 10° W 16:41:33 76° S 16:46:12 10° ESE visible
22 Nov 8.5 18:19:13 10° W 18:23:25 35° SSW 18:25:46 21° SSE visible
